STARLINK-1153, 45080

Orbit data source: Space-Track

STARLINK-1153, 45080 is a payload satellite owned by SpaceX/Seattle (US) in LEO that was launched on Wed, 29 Jan 2020 UTC via an FALCON 9 launch vehicle from the Air Force Eastern Test Range (AFETR). Payload-class satellites include a variety of spacecraft equipped with specific instruments for various scientific and technological missions. These include communications satellites like Starlink; space stations such as the ISS; scientific satellites like the Hubble; Earth observation satellites from companies like Planet Labs, Umbra, and HawkEye 360; GPS; miniature CubeSats for education and research; and military/defense satellites.

Loading next visibility...
Identifier
45080, 2020-006AN
Orbit
LEO
Country
Flag of USUS
Related business
Manufacturer
SpaceX/Seattle
Mission
Operational Commercial Communications
Bus & Motor
STARLINK, Unknown motor
Mass
260 kg wet, ~248 kg dry
Launch date (UTC)
2020-01-29 (6 years ago)
Launch vehicle
FALCON 9
Launch site
Air Force Eastern Test Range (AFETR)
Object type
Payload
Rocket body
Debris
Shape & HBR
Box + 1 Pan, 4.4 m
Radar Cross Section
13.562 m², Large (>1 m²)

Expand to show TLE details & history
Last TLE update: 23 hours ago

TLE from 23 hours ago
0 STARLINK-1153
1 45080U 20006AN  25259.88710288 -.00000475  00000-0 -13020-4 0  9998
2 45080  53.0536 326.8531 0001223  88.8892 271.2237 15.06403188310543
Epoch: 2025-09-16T21:17Z
TLE epoch observation values (Epoch: 2025-09-16T21:17:25.688Z)
Latitude
-0.00005°
Longitude
11.42507°
Altitude
548.063 km
Speed
7.589 km/s
True Right ascension
21h 47m 24s
True Declination
0° 00' 00"
Sunlit
Object was in full shadow at epoch
Visualization orbit readout
Latitude
Unknown
Longitude
Unknown
Altitude
Unknown
Speed
Unknown
Apparent Right ascension
Unknown
Apparent Declination
Unknown
Sunlit
N/A
Visualization observer readout
Local Sidereal Time
13:34:40
Azimuth
Unknown
Elevation
Unknown
Doppler factor
Unknown
Orbital elements
Apogee altitude
548.32 km
Perigee altitude
546.626 km
Semi-major axis
6,925.61 km
Eccentricity
0.00012
Inclination
53.0536°
RAAN
326.8531°
Arg. of periapsis
88.8892°
True anomaly
271.20969°
Mean anomaly
271.2237°
Eccentric anomaly
271.21669°
Mean motion
3.76579 °/min
Orbital period
95.6 mins
BSTAR
-0.00001302
Loading maneuver chart data...
Computing Atmospheric mass density...

Documentation

Showing up to 5 results
|